When you browse on this site, cookies collect data to enhance your experience and personalize the content and advertising you see.
Visit our Privacy Policy to learn more. By continuing to use the site, you agree to this use of cookies and data.
  • en Suisse
  • Liste des pays
  • À 7 jours
  • Température de l'eau
  • Carte satellitaire
  • Carte météo
  • Widgets météo
  • user-avatar
    Se connecter

    Météo par heure à Sarajevo

    Ce jour, 16 Janvier, Mercredi

    Heure Température Précipitation Vent Pression Humidité
    00:00 -9°C° 0 mm 1 m/s 688 mmHg 82%
    01:00 -8°C° 0 mm 1 m/s 687 mmHg 79%
    02:00 -8°C° 0 mm 1 m/s 687 mmHg 77%
    03:00 -8°C° 0 mm 1 m/s 687 mmHg 76%
    04:00 -7°C° 0 mm 1 m/s 687 mmHg 74%
    05:00 -7°C° 0 mm 1 m/s 687 mmHg 74%
    06:00 -7°C° 0 mm 1 m/s 687 mmHg 75%
    07:00 -7°C° 0 mm 2 m/s 687 mmHg 77%
    08:00 -6°C° 0 mm 2 m/s 687 mmHg 80%
    09:00 -4°C° 0 mm 2 m/s 688 mmHg 82%
    10:00 -2°C° 0 mm 2 m/s 688 mmHg 85%
    11:00 -1°C° 0 mm 2 m/s 688 mmHg 87%
    12:00 -1°C° 0 mm 2 m/s 689 mmHg 89%
    13:00 +1°C° 0 mm 2 m/s 689 mmHg 92%
    14:00 -1°C° 0 mm 2 m/s 688 mmHg 92%
    15:00 -1°C° 0 mm 2 m/s 688 mmHg 92%
    16:00 -2°C° 0 mm 2 m/s 688 mmHg 92%
    17:00 -3°C° 0 mm 2 m/s 688 mmHg 91%
    18:00 -5°C° 0 mm 2 m/s 688 mmHg 90%
    19:00 -6°C° 0 mm 2 m/s 688 mmHg 90%
    20:00 -6°C° 0 mm 2 m/s 688 mmHg 90%
    21:00 -6°C° 0 mm 2 m/s 688 mmHg 90%
    22:00 -6°C° 0 mm 2 m/s 688 mmHg 90%
    23:00 -5°C° 0 mm 2 m/s 688 mmHg 90%

    Demain, 17 Janvier, Jeudi

    Heure Température Précipitation Vent Pression Humidité
    00:00 -5°C° 0 mm 2 m/s 688 mmHg 91%
    01:00 -5°C° 0 mm 2 m/s 688 mmHg 92%
    02:00 -5°C° 0 mm 2 m/s 688 mmHg 92%
    03:00 -5°C° 0 mm 2 m/s 688 mmHg 92%
    04:00 -5°C° 0 mm 2 m/s 688 mmHg 92%
    05:00 -5°C° 0 mm 2 m/s 688 mmHg 91%
    06:00 -4°C° 0 mm 2 m/s 688 mmHg 90%
    07:00 -4°C° 0 mm 2 m/s 688 mmHg 89%
    08:00 -3°C° 0 mm 2 m/s 688 mmHg 90%
    09:00 -1°C° 0 mm 2 m/s 688 mmHg 91%
    10:00 +2°C° 0 mm 2 m/s 688 mmHg 93%
    11:00 +2°C° 0 mm 2 m/s 688 mmHg 94%
    12:00 +2°C° 0 mm 2 m/s 688 mmHg 96%
    13:00 +3°C° 0 mm 2 m/s 688 mmHg 98%
    14:00 +2°C° 0 mm 2 m/s 687 mmHg 98%
    15:00 +2°C° 0 mm 2 m/s 687 mmHg 97%
    16:00 +1°C° 0 mm 2 m/s 687 mmHg 97%
    17:00 -1°C° 0 mm 2 m/s 687 mmHg 96%
    18:00 -2°C° 0 mm 2 m/s 687 mmHg 95%
    19:00 -3°C° 0 mm 2 m/s 686 mmHg 93%
    20:00 -3°C° 0 mm 2 m/s 686 mmHg 93%
    21:00 -3°C° 0 mm 2 m/s 686 mmHg 92%
    22:00 -3°C° 0 mm 2 m/s 686 mmHg 91%
    23:00 -2°C° 0 mm 2 m/s 686 mmHg 92%

    Après-demain, 18 Janvier, Vendredi

    Heure Température Précipitation Vent Pression Humidité
    00:00 +1°C° 0 mm 2 m/s 687 mmHg 93%
    01:00 +2°C° 0 mm 2 m/s 687 mmHg 94%
    02:00 +1°C° 0 mm 2 m/s 686 mmHg 94%
    03:00 +1°C° 0 mm 2 m/s 686 mmHg 93%
    04:00 +1°C° 0 mm 2 m/s 686 mmHg 93%
    05:00 -1°C° 0 mm 2 m/s 686 mmHg 93%
    06:00 -1°C° 0 mm 2 m/s 686 mmHg 92%
    07:00 -2°C° 0 mm 2 m/s 686 mmHg 92%
    08:00 -1°C° 0 mm 2 m/s 687 mmHg 94%
    09:00 +2°C° 0 mm 1 m/s 687 mmHg 95%
    10:00 +3°C° 0 mm 1 m/s 688 mmHg 97%
    11:00 +3°C° 0.3 mm 1 m/s 688 mmHg 98%
    12:00 +4°C° 0.3 mm 1 m/s 688 mmHg 98%
    13:00 +4°C° 0.3 mm 1 m/s 688 mmHg 98%
    14:00 +3°C° 0.6 mm 1 m/s 688 mmHg 98%
    15:00 +3°C° 0.6 mm 1 m/s 688 mmHg 97%
    16:00 +3°C° 0.6 mm 1 m/s 688 mmHg 96%
    17:00 +2°C° 0.5 mm 1 m/s 688 mmHg 96%
    18:00 +2°C° 0.5 mm 1 m/s 688 mmHg 96%
    19:00 +2°C° 0.5 mm 1 m/s 688 mmHg 96%
    20:00 +2°C° 0.4 mm 1 m/s 688 mmHg 96%
    21:00 +2°C° 0.4 mm 1 m/s 689 mmHg 96%
    22:00 +2°C° 0.4 mm 1 m/s 689 mmHg 95%
    23:00 +2°C° 0.1 mm 1 m/s 689 mmHg 95%

    19 Janvier, Samedi

    Heure Température Précipitation Vent Pression Humidité
    00:00 +3°C° 0.1 mm 1 m/s 689 mmHg 94%
    01:00 +3°C° 0.1 mm 1 m/s 688 mmHg 94%
    02:00 +3°C° 0 mm 1 m/s 688 mmHg 94%
    03:00 +3°C° 0 mm 1 m/s 688 mmHg 94%
    04:00 +3°C° 0 mm 1 m/s 687 mmHg 94%
    05:00 +2°C° 0 mm 2 m/s 687 mmHg 94%
    06:00 +2°C° 0 mm 2 m/s 687 mmHg 95%
    07:00 +2°C° 0 mm 2 m/s 687 mmHg 95%
    08:00 +2°C° 0 mm 2 m/s 687 mmHg 96%
    09:00 +3°C° 0 mm 2 m/s 687 mmHg 97%
    10:00 +3°C° 0 mm 2 m/s 687 mmHg 99%
    11:00 +3°C° 0 mm 2 m/s 687 mmHg 99%
    12:00 +3°C° 0 mm 2 m/s 686 mmHg 99%
    13:00 +3°C° 0 mm 2 m/s 686 mmHg 99%
    14:00 +3°C° 0.1 mm 2 m/s 686 mmHg 99%
    15:00 +3°C° 0.1 mm 2 m/s 685 mmHg 99%
    16:00 +3°C° 0.1 mm 2 m/s 685 mmHg 99%
    17:00 +3°C° 0.1 mm 2 m/s 685 mmHg 98%
    18:00 +3°C° 0.1 mm 2 m/s 685 mmHg 98%
    19:00 +3°C° 0.1 mm 2 m/s 685 mmHg 97%
    20:00 +3°C° 0.1 mm 2 m/s 685 mmHg 97%
    21:00 +3°C° 0.1 mm 2 m/s 685 mmHg 97%
    22:00 +3°C° 0.1 mm 2 m/s 685 mmHg 97%
    23:00 +3°C° 0.1 mm 2 m/s 685 mmHg 98%

    20 Janvier, Dimanche

    Heure Température Précipitation Vent Pression Humidité
    00:00 +3°C° 0.1 mm 2 m/s 684 mmHg 98%
    01:00 +3°C° 0.1 mm 2 m/s 684 mmHg 98%
    02:00 +3°C° 0.1 mm 2 m/s 684 mmHg 98%
    03:00 +3°C° 0.1 mm 2 m/s 684 mmHg 98%
    04:00 +3°C° 0.1 mm 2 m/s 683 mmHg 98%
    05:00 +2°C° 0 mm 2 m/s 683 mmHg 98%
    06:00 +2°C° 0 mm 2 m/s 683 mmHg 98%
    07:00 +2°C° 0 mm 2 m/s 683 mmHg 97%
    08:00 +3°C° 0.1 mm 2 m/s 684 mmHg 98%
    09:00 +3°C° 0.1 mm 2 m/s 684 mmHg 98%
    10:00 +3°C° 0.1 mm 2 m/s 684 mmHg 99%
    11:00 +3°C° 0.3 mm 2 m/s 684 mmHg 99%
    12:00 +3°C° 0.3 mm 2 m/s 684 mmHg 98%
    13:00 +4°C° 0.3 mm 2 m/s 684 mmHg 98%
    14:00 +3°C° 0.2 mm 2 m/s 684 mmHg 99%
    15:00 +3°C° 0.2 mm 2 m/s 684 mmHg 99%
    16:00 +4°C° 0.2 mm 1 m/s 684 mmHg 99%
    17:00 +4°C° 0.1 mm 1 m/s 684 mmHg 99%
    18:00 +3°C° 0.1 mm 1 m/s 684 mmHg 98%
    19:00 +3°C° 0.1 mm 1 m/s 685 mmHg 98%
    20:00 +3°C° 0 mm 1 m/s 685 mmHg 97%
    21:00 +3°C° 0 mm 1 m/s 685 mmHg 97%
    22:00 +2°C° 0 mm 1 m/s 685 mmHg 97%
    23:00 +2°C° 0 mm 1 m/s 686 mmHg 96%

    21 Janvier, Lundi

    Heure Température Précipitation Vent Pression Humidité
    00:00 +2°C° 0 mm 1 m/s 686 mmHg 96%
    01:00 +1°C° 0 mm 1 m/s 686 mmHg 95%
    02:00 +1°C° 0 mm 1 m/s 686 mmHg 95%
    03:00 0°C° 0 mm 1 m/s 685 mmHg 94%
    04:00 0°C° 0 mm 1 m/s 685 mmHg 94%
    05:00 0°C° 0 mm 1 m/s 686 mmHg 93%
    06:00 0°C° 0 mm 1 m/s 686 mmHg 93%
    07:00 0°C° 0 mm 1 m/s 686 mmHg 92%
    08:00 +1°C° 0 mm 1 m/s 686 mmHg 93%
    09:00 +2°C° 0 mm 1 m/s 687 mmHg 93%
    10:00 +3°C° 0 mm 1 m/s 687 mmHg 94%
    11:00 +3°C° 0 mm 1 m/s 687 mmHg 95%
    12:00 +3°C° 0 mm 1 m/s 687 mmHg 95%
    13:00 +4°C° 0 mm 1 m/s 687 mmHg 96%
    14:00 +3°C° 0 mm 1 m/s 687 mmHg 95%
    15:00 +3°C° 0 mm 1 m/s 687 mmHg 94%
    16:00 +2°C° 0 mm 2 m/s 687 mmHg 93%
    17:00 +1°C° 0 mm 2 m/s 687 mmHg 94%
    18:00 +1°C° 0 mm 2 m/s 687 mmHg 95%
    19:00 -1°C° 0 mm 2 m/s 687 mmHg 95%
    20:00 -1°C° 0 mm 2 m/s 687 mmHg 95%
    21:00 -1°C° 0 mm 2 m/s 687 mmHg 95%
    22:00 -1°C° 0 mm 2 m/s 687 mmHg 95%
    23:00 -1°C° 0 mm 2 m/s 687 mmHg 95%
    Voir plus